Эльгинский

Россия / Республика Саха (Якутия)     64°33′40″N   141°40′20″E
темп.,
°C
ветер,
м/с
пор.,
м/с
влажн.,
%
обл.,
%
осадки,
мм/ч
давл.,
гПа
погр.,
м
3 марта, ср
ср323:00−32зюз0095100 0.0 102119
02:00−31зсз1193100 0.0 101919
05:00−30ююз0099100 0.1 101819
08:00−30ююз11100100 0.3 101719
11:00−28ю1097100 0.4 1015111
14:00−27ю1090100 0.2 1012262
17:00−26ююз1093100 0.3 1010189
20:00−28сз1199100 0.1 101219
4 марта, чт
чт423:00−29с1199100 0.1 101219
02:00−29ссв2296100 0.1 101219
05:00−31ссв2295100 0.1 101219
08:00−34ссв2293100 0.0 101319
11:00−33с2290100 0.1 101295
14:00−31зсз2279100 0.0 1011475
17:00−31зсз2377100 0.0 1011509
20:00−33зсз2288100 0.0 101322
5 марта, пт
пт523:00−35зсз2288100 0.0 101320
02:00−37зсз2287100 0.0 101421
05:00−38зсз2286100 0.0 101521
08:00−39зсз2285100 0.0 101624
11:00−37зсз2380100 0.0 1015294
14:00−35зсз3376100 0.0 1014489
17:00−35зсз2378100 0.0 1013428
20:00−37зсз2288100 0.0 101623
6 марта, сб
сб623:00−37зсз2295100 0.1 101726
02:00−37сз2295100 0.1 101837
05:00−36зсз2294100 0.1 101934
08:00−37сз2290100 0.0 102020
11:00−35сз2283100 0.0 1019162
14:00−33зсз2277100 0.0 1018371
17:00−31зсз2277100 0.0 1017387
20:00−33зсз2285100 0.0 101920
7 марта, вс
вс723:00−33зсз2285100 0.0 101920
02:00−34зсз2285100 0.0 101919
05:00−35зсз2286100 0.0 101919
08:00−37зсз2288100 0.0 102019
11:00−34зсз228578 0.0 1019103
14:00−30з227986 0.0 1017310
17:00−29зсз228153 0.0 1017261
20:00−35сз22860 0.0 102019